K3TE Weather Reports


time (UTC)temp
F
wind
direction
speed
knots
gust
knots
rain 1hr
in
rain 24hr
in
rain mn
in
humidity
%
barometer
mb
20260510030111 49 0 0.0 0.9 0.00 0.27 0.27 96 1012.0
20260510024601 49 0 0.0 0.0 0.00 0.27 0.27 95 1012.1
20260510023057 49 0 0.0 0.0 0.00 0.27 0.27 95 1012.1
20260510021604 50 0 0.0 0.0 0.00 0.27 0.27 95 1012.0
20260510020058 50 0 0.0 0.0 0.00 0.27 0.27 95 1011.9
20260510014602 50 0 0.0 0.0 0.00 0.27 0.27 95 1011.7
20260510013132 50 0 0.0 0.0 0.00 0.27 0.27 95 1011.8
20260510011558 49 0 0.0 0.9 0.00 0.27 0.27 94 1011.7
20260510010100 50 0 0.0 0.0 0.00 0.27 0.27 93 1011.6
20260510004604 50 0 0.0 0.0 0.00 0.27 0.27 93 1011.4
20260510003108 51 0 0.0 0.0 0.00 0.27 0.27 92 1011.3
20260510001603 51 0 0.0 0.0 0.00 0.27 0.27 92 1011.2
20260510000127 52 0 0.0 0.0 0.00 0.27 0.27 91 1011.1
20260509234602 52 0 0.0 0.0 0.00 0.27 0.27 90 1010.9
20260509233058 53 0 0.0 0.0 0.00 0.27 0.27 90 1010.8
20260509231625 53 0 0.0 0.9 0.00 0.27 0.27 89 1010.7
20260509230105 53 158 0.0 1.7 0.00 0.27 0.27 88 1010.7
20260509224601 53 0 0.0 3.5 0.00 0.27 0.27 89 1010.9
20260509223105 54 0 0.0 4.3 0.00 0.27 0.27 90 1010.9
20260509221623 54 193 0.9 5.2 0.00 0.27 0.27 90 1010.9
20260509214604 54 0 0.0 1.7 0.00 0.27 0.27 91 1010.9
20260509213101 54 0 0.0 4.3 0.00 0.27 0.27 92 1011.1
20260509211602 54 152 1.7 3.5 0.00 0.27 0.27 93 1011.0
20260509210100 54 65 0.0 3.5 0.00 0.27 0.27 92 1011.0
20260509204603 54 175 0.9 5.2 0.00 0.28 0.27 95 1011.2
20260509203100 53 216 0.9 3.5 0.00 0.28 0.27 94 1011.3
20260509201559 53 133 0.9 3.5 0.00 0.28 0.27 94 1011.4
20260509200110 53 0 0.9 2.6 0.00 0.28 0.27 95 1011.5
20260509194558 53 0 0.0 6.1 0.00 0.28 0.27 95 1011.8
20260509193058 52 0 0.0 0.0 0.01 0.28 0.27 95 1011.8
20260509191604 52 0 0.0 4.3 0.02 0.28 0.27 96 1011.8
20260509190100 51 0 1.7 5.2 0.02 0.28 0.27 95 1012.1
20260509184603 51 189 0.9 2.6 0.03 0.28 0.27 95 1012.3
20260509183109 51 0 0.0 2.6 0.04 0.27 0.26 95 1012.4
20260509181600 51 0 0.0 0.0 0.06 0.26 0.25 95 1012.4
20260509180104 51 0 0.0 0.9 0.09 0.26 0.25 95 1012.4
20260509174603 51 0 0.0 3.5 0.11 0.25 0.24 95 1012.5
20260509173104 50 0 0.0 2.6 0.14 0.23 0.22 95 1012.5
20260509171559 51 0 0.0 1.7 0.14 0.20 0.19 95 1012.7
20260509170100 50 0 0.9 2.6 0.13 0.17 0.16 95 1012.7
20260509164558 50 0 0.9 5.2 0.11 0.14 0.13 94 1012.8
20260509163105 51 183 0.0 1.7 0.07 0.09 0.08 93 1012.9
20260509161603 51 227 0.9 3.5 0.04 0.06 0.05 92 1013.2
20260509160059 51 158 1.7 5.2 0.02 0.04 0.03 90 1013.1
20260509154603 52 185 0.9 2.6 0.01 0.03 0.02 91 1013.1
20260509153101 52 148 0.9 6.1 0.01 0.02 0.01 90 1013.2
20260509151605 52 229 2.6 6.1 0.01 0.02 0.01 89 1013.2
20260509150104 52 162 0.9 2.6 0.01 0.02 0.01 90 1013.3
20260509144559 51 0 0.0 0.9 0.01 0.02 0.01 90 1013.1
20260509143103 51 139 0.9 2.6 0.00 0.01 0.00 87 1012.6
20260509141602 51 0 0.0 1.7 0.00 0.01 0.00 91 1012.6
20260509140107 51 331 0.9 2.6 0.00 0.01 0.00 91 1012.8
20260509134612 50 165 0.0 1.7 0.00 0.01 0.00 88 1012.9
20260509133107 50 155 0.9 1.7 0.00 0.01 0.00 90 1013.0
20260509131611 50 0 0.9 1.7 0.00 0.01 0.00 90 1012.8
20260509130109 50 0 0.0 1.7 0.00 0.01 0.00 90 1012.2
20260509124558 50 333 0.9 2.6 0.00 0.01 0.00 89 1012.3
20260509123138 50 0 0.0 2.6 0.00 0.01 0.00 84 1012.5
20260509121601 50 0 0.0 1.7 0.00 0.01 0.00 84 1012.7
20260509120058 49 159 0.9 2.6 0.00 0.01 0.00 84 1012.7
20260509114558 48 0 0.9 2.6 0.00 0.01 0.00 86 1012.8
20260509113107 48 0 0.0 1.7 0.00 0.01 0.00 89 1012.8
20260509111600 47 322 0.9 3.5 0.00 0.01 0.00 90 1012.4
20260509110100 47 0 2.6 5.2 0.00 0.01 0.00 89 1012.2
20260509104600 47 316 0.0 1.7 0.00 0.01 0.00 89 1012.3
20260509103104 47 0 0.9 2.6 0.00 0.01 0.00 87 1012.5
20260509101603 47 0 0.0 2.6 0.00 0.01 0.00 87 1012.3
20260509100101 47 317 1.7 3.5 0.00 0.01 0.00 87 1011.9
20260509094600 47 310 0.0 2.6 0.00 0.01 0.00 88 1012.1
20260509093057 47 336 0.9 1.7 0.00 0.01 0.00 86 1012.3
20260509091604 48 354 0.9 1.7 0.00 0.01 0.00 84 1012.4
20260509090105 48 0 0.0 1.7 0.00 0.01 0.00 84 1012.4
20260509084602 48 0 0.0 0.9 0.00 0.01 0.00 83 1012.8
20260509083102 48 0 0.0 1.7 0.00 0.01 0.00 84 1012.7
20260509081559 47 0 0.0 1.7 0.00 0.01 0.00 85 1012.9
20260509080101 47 0 0.0 1.7 0.00 0.01 0.00 87 1013.1
20260509074610 47 335 0.9 1.7 0.00 0.01 0.00 87 1013.2
20260509073100 47 335 0.9 2.6 0.00 0.01 0.00 88 1013.3
20260509071619 47 335 0.9 2.6 0.00 0.01 0.00 86 1013.2
20260509070100 48 334 0.9 2.6 0.00 0.01 0.00 83 1013.2
20260509064606 49 180 0.0 0.9 0.00 0.01 0.00 83 1013.4
20260509063100 49 0 0.0 0.0 0.00 0.01 0.00 85 1013.5
20260509061606 49 0 0.0 0.0 0.00 0.01 0.00 84 1013.7
20260509060110 49 0 0.0 2.6 0.00 0.01 0.00 84 1013.7
20260509054611 49 0 0.0 0.9 0.00 0.01 0.00 84 1013.5
20260509053103 49 0 0.0 0.9 0.00 0.01 0.00 84 1013.4
20260509051606 49 313 0.9 2.6 0.00 0.01 0.00 84 1013.7
20260509050208 50 337 0.9 1.7 0.00 0.01 0.00 82 1013.8
20260509044558 50 0 0.0 0.9 0.00 0.01 0.00 81 1014.3
20260509043103 50 0 0.0 1.7 0.00 0.01 0.00 78 1014.1
20260509041559 50 176 0.9 3.5 0.00 0.01 0.00 78 1014.0
20260509040101 50 178 2.6 6.1 0.00 0.01 0.00 78 1014.1
20260509034558 51 0 0.0 0.0 0.00 0.01 0.01 76 1013.6
20260509033100 51 0 0.0 0.0 0.00 0.01 0.01 75 1013.9
20260509031623 51 0 0.0 0.0 0.00 0.01 0.01 75 1013.9